Regional Weather Roundup
Issued by NWS Raleigh/Durham, NC

Home | Current Version | Previous Version | Text Only | Print | Product List | Glossary On
Versions: 1 2 3 4 5 6 7 8 9 10 11 12 13 14 15 16 17 18 19 20 21 22 23 24 25 26 27 28 29 30 31 32 33 34 35 36 37 38 39 40 41 42 43 44 45 46 47 48 49 50
000
ASUS42 KRAH 201710
RWRRAH
NORTH CAROLINA WEATHER ROUNDUP
NATIONAL WEATHER SERVICE RALEIGH NC
100 PM EDT WED AUG 20 2014

NOTE: "FAIR" INDICATES FEW OR NO CLOUDS BELOW 12,000 FEET WITH NO
SIGNIFICANT WEATHER AND/OR OBSTRUCTIONS TO VISIBILITY.

NCZ001-053-055-056-065-067-201800-
WESTERN NORTH CAROLINA

CITY           SKY/WX    TMP DP  RH WIND       PRES   REMARKS
ASHEVILLE      SUNNY     83  67  58 SE7       30.11F
JEFFERSON      SUNNY     72  63  73 CALM      30.15R
MORGANTON      MOSUNNY   85  67  55 S6        30.09R
HICKORY        SUNNY     85  68  56 CALM      30.04F
RUTHERFORDTON  SUNNY     85  68  56 S6        30.06S
MOUNT AIRY     PTSUNNY   81  71  71 CALM      30.04F
BOONE          PTSUNNY   74  59  60 W8        30.16S
$$

NCZ021-022-025-041-071-084-088-201800-
CENTRAL NORTH CAROLINA

CITY           SKY/WX    TMP DP  RH WIND       PRES   REMARKS
CHARLOTTE      MOSUNNY   88  68  51 W5        30.03S
GREENSBORO     PTSUNNY   83  71  67 SW7       30.00S
WINSTON-SALEM  PTSUNNY   83  69  62 SW6       30.02F
RALEIGH-DURHAM PTSUNNY   84  71  65 CALM      30.01F
FORT BRAGG     MOSUNNY   87  74  64 NE3       29.98F HX  96
FAYETTEVILLE   MOSUNNY   88  73  61 NE7       29.98F HX  95
BURLINGTON     MOSUNNY   85  71  63 S7        29.99F
LAURINBURG     MOSUNNY   88  72  58 S3        29.99F
$$

NCZ011-015-027-028-043-044-047-080-103-201800-
NORTHEASTERN NORTH CAROLINA

CITY           SKY/WX    TMP DP  RH WIND       PRES   REMARKS
ROCKY MT-WILSO MOSUNNY   83  71  67 CALM      30.00F
GREENVILLE     MOSUNNY   82  72  69 NW6       30.01F
WASHINGTON     MOSUNNY   83  73  70 W5        29.99S
ELIZABETH CITY PTSUNNY   83  70  64 VRB5      29.98S
MANTEO         PTSUNNY   81  72  74 NE9       29.98S
CAPE HATTERAS  PTSUNNY   82  75  79 N9        29.96F
$$

NCZ078-087-090-091-093-098-101-201800-
SOUTHEASTERN NORTH CAROLINA

CITY           SKY/WX    TMP DP  RH WIND       PRES   REMARKS
LUMBERTON      PTSUNNY   88  73  61 VRB5      29.97F HX  95
GOLDSBORO      MOSUNNY   85  77  76 NE7       29.98S HX  95
KINSTON        PTSUNNY   84  72  65 N5        30.00F
KENANSVILLE    MOSUNNY   86  71  60 NW5       30.00F
NEW BERN       PTSUNNY   85  72  65 N6        29.99S
CHERRY POINT   MOSUNNY   85  73  67 N7        29.99S
BEAUFORT       MOSUNNY   86  74  67 NW7       29.98S
JACKSONVILLE   PTSUNNY   87  73  62 VRB3      29.98S
WILMINGTON     PTSUNNY   88  76  67 MISG      29.98F HX  99
$$



USA.gov is the U.S. government's official web portal to all federal, state and local government web resources and services.